Location: Newark
(9.4667°S, 159.8167°E)
Time: 02:28:44
(UTC+00:00)

Vanguard 1 - Pass Details

Date: 23 November 2019
Orbit: 651 x 3832 km, 34.3° (Epoch: 14 December)

Event Time Altitude Azimuth Distance (km) Brightness Sun altitude
Rises 09:51:32 0° 270° (W) 3,942 13.9 -33.5°
Reaches altitude 10° 09:54:05 10° 260° (W) 3,279 13.4 -34.0°
Maximum altitude 10:01:46 35° 196° (SSW) 2,697 12.5 -35.6°
Drops below altitude 10° 10:15:00 10° 136° (SE) 5,609 13.8 -38.3°
Sets 10:21:09 0° 128° (SE) 7,137 14.3 -39.5°
